Weather History for Tacoma, WA

Change the Weather History Date:

Tuesday, December 3, 2013

  Actual Average Record
Temperature  
Mean Temperature 31 °F -  
Max Temperature 39 °F 46 °F 62 °F (1965)
Min Temperature 22 °F 33 °F 21 °F (1992)
Degree Days  
Heating Degree Days 34    
Moisture  
Dew Point 28 °F    
Average Humidity 83    
Maximum Humidity 100    
Minimum Humidity 57    
Precipitation  
Precipitation 0.01 in - - ()
Sea Level Pressure  
Sea Level Pressure 30.18 in    
Wind  
Wind Speed 6 mph (NNE)    
Max Wind Speed 14 mph    
Max Gust Speed 22 mph    
Visibility 10 miles    
Events Rain    
Averages and records for this station are not official NWS values.
T = Trace of Precipitation, MM = Missing Value Source: NWS Daily Summary

Daily Weather History Graph

Daily Weather History Graph

Search for Another Location

Airport:

Trip Planner

Search our weather history database for the weather conditions in past years. The results will help you decide how hot, cold, wet, or windy it might be!

Date:

Astronomy

Dec. 03, 2013 Rise Set
Actual Time 7:38 AM PST 4:21 PM PST
Civil Twilight 7:03 AM PST 4:56 PM PST
Nautical Twilight 6:24 AM PST 5:34 PM PST
Astronomical Twilight 5:48 AM PST 6:11 PM PST
Moon 8:11 AM PST (12/3) 5:32 PM PST (12/3)
Length of Visible Light 9h 53m
Length of Day
8h 43m
New Moon, 1% of the Moon is Illuminated
Dec 3
New Moon
Dec 9
First Quarter
Dec 17
Full
Dec 25
Last Quarter
Jan 1
New

Hourly Weather History & Observations

Time (PST) Temp. Windchill Dew Point Humidity Pressure Visibility Wind Dir Wind Speed Gust Speed Precip Events Conditions
12:08 AM 35.6 °F 32.8 °F 35.6 °F 100% 30.06 in 10.0 mi NW 3.5 mph - N/A Rain Light Rain
12:27 AM 35.6 °F 31.7 °F 33.8 °F 93% 30.07 in 10.0 mi ENE 4.6 mph - N/A Rain Light Rain
12:32 AM 33.8 °F 30.8 °F 33.8 °F 100% 30.07 in 10.0 mi ENE 3.5 mph - N/A Rain Light Freezing Rain
12:42 AM 33.8 °F 29.6 °F 33.8 °F 100% 30.07 in 10.0 mi NNE 4.6 mph - N/A Rain Light Rain
12:47 AM 33.8 °F 29.6 °F 33.8 °F 100% 30.07 in 10.0 mi NNE 4.6 mph - N/A Rain Light Freezing Rain
12:52 AM 33.8 °F 29.6 °F 33.8 °F 100% 30.08 in 10.0 mi NNE 4.6 mph - N/A Rain Light Freezing Rain
12:56 AM 33.8 °F 29.6 °F 33.8 °F 100% 30.08 in 10.0 mi NNE 4.6 mph - N/A   Overcast
12:58 AM 33.8 °F 29.6 °F 33.8 °F 100% 30.10 in 10.0 mi NNE 4.6 mph - 0.01 in   Overcast
1:13 AM 33.8 °F 27.0 °F 32.0 °F 93% 30.08 in 10.0 mi North 8.1 mph - N/A   Mostly Cloudy
1:58 AM 33.8 °F 25.8 °F 25.5 °F 72% 30.11 in 10.0 mi NNE 10.4 mph - N/A   Scattered Clouds
2:58 AM 33.8 °F 26.4 °F 26.1 °F 73% 30.12 in 10.0 mi NNE 9.2 mph - N/A   Partly Cloudy
3:58 AM 34.0 °F 28.8 °F 29.1 °F 82% 30.13 in 10.0 mi NE 5.8 mph - N/A   Overcast
4:03 AM 33.8 °F 28.6 °F 30.2 °F 87% 30.12 in 10.0 mi NE 5.8 mph - N/A   Overcast
4:53 AM 35.6 °F 26.6 °F 28.4 °F 75% 30.13 in 10.0 mi NNE 13.8 mph - N/A   Mostly Cloudy
4:58 AM 34.9 °F 26.6 °F 28.8 °F 78% 30.15 in 10.0 mi NNE 11.5 mph - N/A   Mostly Cloudy
5:23 AM 35.6 °F 28.0 °F 28.4 °F 75% 30.14 in 10.0 mi NNE 10.4 mph - N/A   Overcast
5:58 AM 34.5 °F 26.2 °F 27.7 °F 76% 30.17 in 10.0 mi NNE 11.5 mph 19.6 mph N/A   Mostly Cloudy
6:08 AM 33.8 °F 25.3 °F 28.4 °F 81% 30.16 in 10.0 mi NNE 11.5 mph 19.6 mph N/A   Overcast
6:58 AM 34.5 °F 27.3 °F 26.6 °F 73% 30.20 in 10.0 mi North 9.2 mph - N/A   Mostly Cloudy
7:58 AM 33.4 °F 24.8 °F 27.0 °F 77% 30.21 in 10.0 mi North 11.5 mph - N/A   Clear
8:58 AM 34.5 °F 27.3 °F 25.3 °F 69% 30.22 in 10.0 mi NE 9.2 mph 18.4 mph N/A   Clear
9:58 AM 36.1 °F 29.9 °F 24.4 °F 63% 30.25 in 10.0 mi NE 8.1 mph 21.9 mph N/A   Clear
10:58 AM 37.8 °F 29.8 °F 23.9 °F 57% 30.26 in 10.0 mi NE 12.7 mph 17.3 mph N/A   Clear
11:58 AM 38.7 °F 30.9 °F 26.6 °F 62% 30.27 in 10.0 mi NNE 12.7 mph 18.4 mph N/A   Clear
12:58 PM 39.4 °F 31.4 °F 27.3 °F 62% 30.27 in 10.0 mi NNE 13.8 mph - N/A   Clear
5:58 PM 33.4 °F - 22.6 °F 65% 30.30 in 10.0 mi ENE 2.3 mph - N/A   Clear
6:58 PM 30.0 °F - 21.9 °F 72% 30.30 in 10.0 mi South 2.3 mph - N/A   Clear
7:58 PM 25.3 °F - 21.6 °F 86% 30.32 in 10.0 mi South 2.3 mph - N/A   Clear
8:58 PM 23.4 °F 18.9 °F 21.9 °F 94% 30.32 in 10.0 mi South 3.5 mph - N/A   Clear
9:58 PM 25.2 °F - 24.3 °F 96% 30.32 in 10.0 mi Calm Calm - N/A   Clear
10:58 PM 23.2 °F - 21.7 °F 94% 30.34 in 10.0 mi WSW 2.3 mph - N/A   Clear
11:58 PM 22.6 °F - 22.3 °F 99% 30.32 in 10.0 mi ENE 1.2 mph - N/A   Clear